Theta_e
341 342 347 351 361 364 368 366 361 363 361 358 351 352 357 354 358 358 345 344 344 347 346 350 348 351 349 345 344 349 345 347 351 348 350 350 351 352 352 350 349 350 351 351 350 351 351 349 347
341 348 351 357 371 371 368 361 364 360 357 354 354 355 357 357 350 345 345 344 345 349 348 348 343 343 346 343 350 344 351 348 348 346 350 351 350 352 353 351 351 351 351 351 351 351 345 348 346
349 351 357 362 363 371 369 360 360 357 354 356 357 353 354 354 347 345 346 345 349 349 347 350 346 344 344 344 351 349 345 351 346 350 349 350 352 352 352 352 351 351 351 351 351 350 347 344 340
349 353 356 365 365 364 363 360 356 356 356 354 354 355 348 348 344 345 347 346 351 349 350 348 351 348 345 352 346 351 348 351 349 349 350 350 352 352 352 352 352 352 351 351 351 351 348 346 342
354 354 357 362 362 359 357 357 355 358 357 356 353 353 352 346 346 346 347 350 350 350 350 350 349 345 347 348 351 350 351 348 348 350 351 353 353 353 353 353 352 352 352 351 351 349 345 341 341
357 353 362 365 362 358 357 358 358 358 354 351 351 352 350 346 345 346 346 350 348 349 351 351 350 347 347 351 351 351 349 344 350 352 352 350 352 353 352 352 352 352 351 346 343 342 342 341 339
352 354 358 356 361 361 361 350 359 357 356 355 351 353 348 344 345 345 350 350 347 348 351 352 351 352 351 351 352 349 345 346 351 349 347 347 347 346 347 347 349 348 351 347 343 342 341 339 340
349 350 357 360 360 361 355 357 355 356 357 351 348 353 352 343 344 344 351 351 347 349 350 351 351 350 349 350 351 343 345 350 350 346 343 344 344 344 344 345 346 344 344 345 343 342 341 340 342
344 359 360 362 360 357 353 358 354 352 355 353 351 348 344 342 343 341 348 351 350 350 349 352 350 347 348 350 350 342 345 347 346 347 344 346 348 344 347 344 344 343 345 345 343 344 340 341 343
360 360 358 353 351 351 353 356 356 356 357 355 352 347 342 342 339 340 349 350 351 352 350 350 347 345 344 344 343 337 343 343 343 343 346 349 349 350 348 344 345 344 343 341 341 343 344 340 342
358 358 355 351 350 350 349 356 356 358 360 355 354 345 339 338 339 347 348 350 351 351 350 348 344 344 341 337 335 335 339 345 345 340 339 347 349 348 350 342 344 342 341 344 343 345 346 346 347
353 352 351 348 347 349 350 346 359 358 356 352 349 341 337 337 347 348 347 349 350 351 350 346 344 346 344 332 332 333 341 348 345 347 342 347 346 349 348 342 343 341 341 347 347 348 346 345 344
350 351 351 349 347 348 345 348 356 358 353 350 347 343 342 346 348 348 348 348 349 349 349 346 346 346 345 338 334 340 344 346 346 346 342 346 342 345 346 344 347 347 347 348 347 347 343 341 341
345 348 347 349 345 347 349 347 351 357 353 351 349 350 349 348 348 348 348 348 347 346 347 345 347 346 346 345 339 345 346 346 347 348 348 345 345 349 349 350 348 348 347 346 347 348 345 346 342
335 342 346 348 347 349 348 349 363 356 354 353 351 350 350 348 347 348 348 347 347 344 345 345 347 346 346 347 344 345 347 348 347 348 348 347 346 349 349 348 348 348 347 347 350 345 345 343 342
336 338 347 350 349 350 347 351 360 355 354 355 352 350 350 348 347 348 347 346 346 344 342 344 346 346 345 347 348 348 348 346 348 350 348 349 349 348 350 351 349 349 350 350 350 348 345 343 339
331 337 341 349 349 351 349 349 359 355 354 355 352 351 351 348 347 348 347 346 345 344 342 344 345 346 346 348 349 346 347 348 348 350 349 348 349 352 349 348 349 349 349 349 349 347 347 345 342
331 339 339 342 349 350 352 347 356 355 355 355 353 352 351 349 348 347 347 346 347 345 343 344 345 346 347 346 347 345 346 346 348 349 349 348 349 349 348 350 348 346 352 348 349 348 345 343 342
330 335 338 340 342 350 348 350 350 356 355 356 355 353 352 350 348 347 347 346 346 347 346 345 345 346 348 346 347 346 345 346 346 347 350 349 347 345 346 348 349 350 350 350 348 340 340 338 340
325 329 336 339 339 342 347 349 349 355 355 355 355 354 353 351 349 349 348 347 346 347 347 346 346 345 346 344 344 345 344 345 345 347 347 350 349 348 348 347 350 348 351 349 349 342 345 338 340
325 327 329 339 338 337 343 345 351 349 353 353 353 352 351 349 350 349 349 348 348 346 347 347 347 345 345 345 345 344 342 343 344 347 347 349 350 351 351 351 347 351 352 350 349 348 346 338 342
326 326 328 334 338 340 339 347 343 349 353 353 353 352 351 349 348 349 349 349 348 345 347 347 348 347 347 347 346 346 348 350 346 346 347 347 351 352 353 351 351 350 352 352 350 347 348 339 340
327 327 328 332 336 337 338 342 342 348 358 353 349 346 345 349 348 346 348 348 346 346 347 347 349 349 348 348 348 348 349 350 351 348 348 347 351 352 352 350 352 351 352 351 351 348 346 341 338
329 330 331 331 332 338 337 339 340 353 357 353 348 347 346 349 348 346 346 345 346 347 347 348 351 350 349 349 349 348 348 348 350 350 350 348 347 351 350 350 353 352 350 352 352 351 350 346 342
330 329 334 333 334 335 333 333 336 348 352 351 349 350 349 349 348 347 346 344 346 349 348 348 349 353 351 351 350 349 349 349 347 349 349 349 347 348 348 349 353 356 353 351 351 352 353 350 345
330 329 331 337 332 331 327 334 334 330 335 350 349 350 351 345 346 347 346 345 345 348 350 349 349 351 353 351 351 351 351 350 349 349 350 347 346 346 346 348 350 356 356 353 352 353 353 350 346
330 330 324 322 322 325 327 327 326 326 326 348 351 352 352 348 346 347 346 346 346 348 351 351 350 349 352 352 352 352 352 351 351 351 349 348 347 345 346 348 351 354 357 355 352 353 354 355 351
328 325 327 318 328 324 323 324 330 326 325 325 350 353 352 348 349 346 346 347 346 347 350 352 351 350 351 353 352 352 353 354 352 351 351 348 346 348 345 350 351 353 354 356 353 352 353 355 353
325 327 325 324 318 325 322 325 321 324 324 324 335 350 350 348 350 346 347 347 346 347 349 352 352 352 352 352 354 353 352 351 355 356 352 349 348 350 350 351 352 353 354 355 355 352 352 356 355
332 321 321 323 320 318 320 325 325 323 324 324 325 346 348 348 348 346 348 347 347 347 349 351 353 353 352 353 354 355 355 353 351 355 358 355 350 347 351 353 353 355 355 356 356 354 352 353 357
Wind_Speed
12 13 9 3 1 1 3 4 2 6 4 3 7 6 7 8 1 3 25 23 30 26 24 24 25 23 22 20 19 19 20 19 17 17 18 17 16 16 17 16 15 14 14 13 12 10 10 11 12
17 13 3 1 2 2 4 6 6 9 9 10 11 8 6 4 4 11 16 33 31 28 28 26 24 23 23 20 19 19 17 17 16 18 17 16 16 15 15 15 14 13 12 12 10 9 10 11 12
19 7 1 1 1 3 3 5 8 10 15 7 6 8 5 4 13 20 27 34 31 29 29 25 24 23 22 20 18 18 17 16 15 16 16 15 15 15 15 14 13 12 11 10 9 8 9 10 11
10 4 1 2 9 9 4 5 16 15 10 7 13 8 5 7 21 16 34 34 31 30 28 25 24 24 21 18 17 16 17 15 15 15 15 14 14 14 14 13 12 12 11 10 9 8 8 9 10
5 0 1 2 3 4 2 12 11 12 4 7 4 5 8 12 13 36 35 31 33 30 27 26 24 24 21 18 17 16 15 14 14 14 13 14 14 14 13 13 12 12 11 10 9 9 9 9 10
2 2 2 4 8 11 2 7 9 10 9 12 14 10 4 18 34 28 28 30 32 30 28 26 24 23 19 18 16 15 14 14 13 12 12 13 14 13 12 12 11 10 10 10 10 10 9 9 11
3 3 3 4 7 6 3 15 13 13 11 7 13 7 7 21 29 29 27 33 32 29 29 27 25 21 18 18 16 14 14 13 12 12 12 12 12 12 11 10 10 9 8 8 9 11 10 10 11
3 2 3 6 7 7 10 11 13 13 6 14 14 8 11 21 29 29 28 32 31 30 29 28 25 22 20 18 15 14 14 12 12 12 12 12 11 10 10 9 8 7 7 6 8 9 10 10 11
6 2 4 10 6 4 5 4 5 10 12 4 6 10 24 39 33 27 25 29 30 29 29 27 25 22 21 19 16 14 14 13 12 11 11 11 10 10 9 7 6 6 5 5 4 7 7 8 9
7 2 7 7 4 4 0 3 10 8 8 16 18 20 32 35 28 20 24 25 27 28 30 28 25 23 21 19 17 15 15 13 13 10 8 9 8 8 7 6 5 4 2 2 2 2 4 6 7
10 6 7 6 9 6 7 13 5 16 9 24 28 24 27 28 23 21 21 25 28 32 31 28 26 23 22 20 18 16 16 15 14 11 7 10 10 9 8 7 5 2 3 5 5 3 3 2 2
6 13 12 8 6 5 7 8 10 9 8 21 28 31 28 22 19 23 22 25 29 31 32 29 26 25 21 20 19 18 18 16 12 11 11 9 10 11 9 8 4 3 6 4 5 5 3 5 6
14 16 12 12 8 9 3 0 9 8 18 22 22 24 26 22 23 23 25 24 30 30 33 31 28 27 24 21 19 20 19 16 12 13 11 9 10 10 6 8 6 5 4 3 3 5 5 7 9
7 19 17 13 8 6 5 2 6 14 25 25 26 24 22 22 27 24 27 27 30 32 35 34 32 29 27 24 20 18 16 15 15 12 14 10 8 9 7 6 7 6 6 3 3 3 4 5 11
18 16 10 10 13 6 9 3 11 19 24 26 24 23 19 21 27 26 29 29 34 33 37 38 35 32 29 25 21 18 12 20 21 18 16 12 9 9 7 7 7 4 4 7 4 2 2 1 5
7 9 13 14 9 2 9 7 17 22 24 23 23 20 20 20 26 25 27 30 34 31 36 41 38 36 32 26 20 16 11 16 19 20 17 13 11 9 8 10 8 7 6 7 5 3 1 4 6
4 8 8 18 18 12 11 5 23 23 23 23 23 21 19 19 24 26 32 29 32 34 41 40 37 39 36 30 25 19 15 12 15 20 20 15 13 10 9 10 9 8 7 8 7 4 4 4 5
5 5 6 9 16 16 21 11 22 25 23 24 22 22 20 20 21 27 30 33 28 33 43 45 43 42 38 34 28 23 18 15 10 15 22 16 16 15 11 8 8 11 7 8 7 5 7 4 7
6 7 10 6 10 25 21 22 20 27 21 23 23 21 21 23 26 31 30 33 30 32 40 42 41 43 40 35 31 28 25 21 16 11 15 20 18 14 12 10 9 10 6 8 8 9 8 6 8
14 11 14 15 12 10 17 19 23 27 28 29 25 23 24 22 23 28 32 35 31 35 41 41 44 46 44 39 36 33 31 26 22 15 14 21 21 17 14 12 11 10 8 9 9 9 7 9 11
15 16 16 11 6 8 7 6 19 23 23 22 23 27 26 25 28 25 30 35 34 34 41 43 45 49 47 41 35 31 28 27 24 22 18 17 24 20 16 13 11 10 7 12 9 7 8 11 8
16 20 18 17 7 5 6 12 9 23 19 23 24 22 23 24 24 25 29 34 36 39 43 43 47 47 46 42 38 35 28 23 31 28 23 19 24 23 20 15 13 12 13 12 12 11 9 12 12
19 14 14 17 5 2 15 6 11 28 23 23 24 23 19 23 24 22 28 40 41 41 41 42 46 46 46 44 41 38 30 32 27 28 26 23 25 26 23 17 16 15 14 15 14 14 13 11 14
13 11 9 6 4 10 16 6 9 21 29 29 28 21 20 22 23 23 34 36 39 41 41 40 41 44 46 46 43 40 36 34 33 25 25 30 26 29 26 20 19 18 18 18 16 16 15 13 12
13 7 7 4 7 9 9 6 13 26 29 35 36 25 25 24 25 25 24 26 32 38 41 41 42 38 43 46 44 43 40 36 35 33 30 27 30 31 29 25 23 24 21 20 19 18 18 18 15
14 11 6 9 5 7 6 9 12 12 17 35 37 32 29 23 21 24 26 31 35 39 41 42 42 41 43 45 44 43 41 39 37 35 31 32 29 30 28 30 28 27 25 23 23 21 20 18 18
11 18 11 5 2 4 4 5 9 12 7 22 26 25 25 26 25 25 25 35 38 37 42 45 43 42 41 43 40 40 45 42 40 39 37 32 29 28 28 29 32 30 29 25 25 23 24 23 18
18 9 9 4 12 5 5 6 10 11 12 14 29 29 30 26 26 22 24 32 39 40 43 44 44 45 43 40 40 41 42 42 39 37 37 36 34 28 29 30 34 32 31 30 28 28 26 25 22
4 15 6 7 6 10 4 10 8 11 12 10 20 31 31 31 27 23 22 34 41 40 39 41 40 41 39 41 41 39 36 36 40 39 40 40 35 30 30 31 33 34 35 34 33 32 30 28 27
21 8 10 9 10 3 4 12 6 12 12 11 14 28 30 30 28 24 22 30 33 35 36 37 38 39 41 42 37 36 37 38 38 40 41 41 40 39 34 31 30 28 35 39 38 35 33 32 31
Wind_Direction
161 156 153 225 262 167 257 201 101 157 155 213 152 132 113 30 37 146 146 145 145 138 139 137 139 128 126 124 119 113 109 104 101 102 101 99 98 98 99 101 107 110 112 111 112 108 101 96 94
154 149 187 294 283 12 284 142 181 185 196 133 102 115 67 87 86 120 130 150 144 139 140 139 141 134 130 127 122 116 111 108 104 106 99 102 98 101 98 99 103 106 106 107 107 104 97 96 99
157 159 72 59 277 220 252 176 203 188 149 122 114 48 66 89 122 143 145 149 142 140 142 141 142 137 131 131 127 119 116 108 105 105 100 103 101 99 99 101 101 102 103 105 108 103 96 102 103
162 197 282 217 258 251 272 284 140 139 136 66 103 70 68 121 136 145 145 143 143 143 142 144 138 137 136 132 130 125 122 117 115 111 106 104 101 98 97 99 100 100 103 108 107 102 97 100 111
243 26 95 279 280 270 289 320 158 136 91 111 119 88 102 130 134 141 144 144 146 143 144 144 142 138 140 140 134 128 126 126 123 118 114 105 100 101 102 101 100 100 101 100 100 101 98 98 110
105 90 14 17 325 310 335 3 251 121 104 117 101 107 87 144 142 152 145 153 149 144 145 148 145 144 148 138 139 134 131 130 125 123 116 110 107 107 106 106 104 99 96 96 97 95 100 101 118
135 111 118 306 310 332 119 218 212 141 131 120 141 99 122 143 155 153 139 154 150 148 146 146 147 147 146 144 143 136 133 134 130 124 116 110 110 113 110 106 99 97 94 91 85 80 89 98 116
115 111 87 320 326 304 316 193 150 137 119 118 142 146 153 162 161 154 143 149 152 151 150 150 153 155 151 148 148 141 141 138 132 124 121 118 114 117 116 111 107 103 95 86 78 76 78 95 116
145 110 145 188 222 257 334 159 183 96 138 126 204 138 149 161 166 163 147 144 149 156 156 157 160 158 155 153 156 149 146 143 135 127 126 123 125 129 122 115 116 100 86 76 59 85 92 104 113
198 184 214 210 224 156 172 188 128 137 130 106 104 110 145 157 165 175 149 147 151 157 163 166 165 163 160 162 163 158 153 150 141 147 152 151 137 132 132 143 147 144 116 92 77 44 99 121 137
191 216 158 202 221 214 195 135 131 135 149 152 144 146 157 162 174 168 157 158 159 164 166 174 169 167 167 171 168 167 159 161 157 154 155 158 155 164 163 165 167 189 147 120 96 83 95 96 198
263 230 215 208 217 223 209 150 177 193 185 163 151 151 156 168 174 173 172 165 164 166 171 174 173 172 176 171 174 170 168 172 174 173 162 138 162 163 164 160 159 145 175 127 110 114 71 45 68
237 248 233 219 217 233 59 92 205 175 137 143 144 152 160 167 172 181 179 167 168 170 175 177 175 178 177 178 176 180 180 181 183 176 157 144 160 176 157 165 192 159 179 178 145 123 124 83 84
240 234 257 191 223 246 178 272 20 150 144 148 155 163 167 174 176 177 181 177 171 175 179 181 181 181 182 186 188 189 193 202 203 189 171 173 155 151 170 162 179 179 188 198 169 165 151 111 101
246 267 251 191 213 183 149 250 156 159 152 156 166 167 169 177 181 185 184 183 182 182 184 186 185 184 188 195 201 198 222 223 221 208 194 186 164 158 159 191 194 185 187 195 193 207 244 128 94
226 229 242 211 161 206 154 216 160 166 159 163 171 174 174 181 188 194 183 184 187 182 185 189 189 190 192 188 187 189 178 199 205 196 191 186 172 163 163 191 197 193 198 212 204 230 67 130 135
210 240 234 220 184 154 195 185 164 173 167 167 175 180 181 186 196 198 194 190 190 191 188 189 189 192 193 185 189 195 181 155 186 199 188 187 185 179 184 189 191 180 191 213 213 241 207 189 183
201 195 217 229 197 184 199 212 167 177 173 172 175 182 187 191 204 201 200 198 198 193 189 190 190 194 194 195 196 199 197 190 170 193 193 194 192 193 187 179 193 200 197 194 202 227 189 185 202
252 216 243 250 202 188 206 218 176 177 175 177 185 187 190 190 197 208 205 201 201 193 188 186 187 193 193 193 196 198 203 202 201 197 212 206 196 196 191 181 170 185 196 189 191 176 155 159 161
235 246 252 267 266 179 210 218 176 178 184 184 180 190 197 191 193 200 203 208 204 190 187 185 189 192 197 197 203 205 204 207 210 213 216 214 203 199 199 198 193 196 215 210 189 171 150 163 155
226 229 246 235 297 293 165 194 167 202 183 184 187 196 190 190 188 193 201 202 204 189 186 187 189 193 196 199 200 207 210 215 219 224 222 207 204 200 202 205 201 199 217 210 206 198 187 176 154
222 227 240 255 249 244 203 235 170 185 186 191 193 196 197 192 183 189 198 204 201 192 189 187 190 194 195 197 197 198 197 203 214 217 219 210 205 204 203 207 208 214 216 203 206 209 204 182 165
224 231 231 248 224 195 271 223 225 176 181 199 205 212 207 196 192 183 192 200 199 187 187 187 189 192 194 197 198 197 197 209 213 221 224 218 207 207 208 213 213 214 203 210 211 202 205 200 188
209 225 244 242 192 242 248 228 243 179 186 202 213 211 210 200 197 198 192 186 189 187 184 184 185 190 194 196 198 199 201 210 213 216 221 222 215 211 217 222 218 219 216 213 212 206 204 208 202
223 160 228 260 227 233 219 221 241 181 197 196 209 209 207 203 198 196 190 188 181 184 185 186 186 187 193 195 199 204 207 212 213 217 218 217 217 216 220 219 218 221 220 217 207 211 220 215 211
221 196 166 210 207 222 216 207 240 228 190 197 203 201 199 204 202 202 193 189 187 184 185 188 191 191 193 197 200 204 209 212 216 217 220 222 220 222 226 222 220 222 221 221 217 219 217 219 219
202 215 185 126 212 173 219 210 269 255 176 187 199 196 200 211 199 202 195 194 192 185 186 188 192 194 194 197 199 203 208 211 215 221 224 226 227 228 229 227 220 224 221 223 219 217 220 224 227
202 159 188 178 220 241 262 210 212 227 242 176 192 198 201 209 203 200 192 193 195 190 189 189 192 193 195 198 201 204 207 211 215 219 223 225 229 230 230 230 223 225 226 222 222 222 223 221 225
174 205 194 161 162 225 228 245 198 219 231 217 179 193 198 202 204 200 194 192 196 191 188 189 191 193 195 197 202 205 207 211 216 219 224 224 225 226 226 229 229 229 228 227 222 225 225 224 226
222 187 185 204 213 199 191 256 208 214 218 227 227 193 197 196 198 202 193 190 192 190 187 190 192 192 196 198 199 202 207 211 213 217 223 226 228 228 231 229 227 231 232 229 226 225 226 226 227